Probability
4 7 12 14 13 12 11 9 8 5 3 3 3 3 3 3 3 2 2 3 3 3 2 1 0 0 0 0 0 0 0 0 0 0 0 0 0 0 0 0 0 0 0
9 10 12 13 13 12 11 10 8 6 4 3 3 3 3 3 3 1 1 3 3 3 1 0 0 0 0 0 0 0 0 0 0 0 0 0 0 0 0 0 0 0 0
11 10 9 11 12 13 12 11 10 7 4 3 3 3 3 3 2 1 1 2 3 2 1 0 0 0 0 0 0 0 0 0 0 0 0 0 0 0 0 0 0 0 0
9 7 7 9 11 13 13 13 11 9 6 3 3 3 3 3 3 1 0 1 2 1 0 0 0 1 1 0 0 0 0 0 0 0 0 0 0 0 0 0 0 0 0
9 8 8 9 10 12 13 13 12 11 8 5 4 3 3 3 3 2 1 1 1 0 0 0 0 1 1 1 2 1 0 0 0 0 0 0 0 0 0 0 0 0 0
11 12 12 11 10 10 11 11 11 11 9 7 5 4 4 4 3 3 3 2 1 0 0 0 0 1 1 2 3 2 1 0 0 0 0 0 0 0 0 0 0 0 0
13 14 14 11 8 8 8 9 9 9 9 8 6 4 4 4 4 3 3 3 1 1 1 1 0 0 1 3 3 2 1 0 0 0 0 0 0 1 1 1 0 0 0
14 14 13 10 7 5 6 6 6 7 7 6 5 4 4 4 3 3 3 3 3 3 4 3 1 1 2 3 3 2 1 0 0 0 0 0 0 1 2 2 1 0 0
13 13 12 10 7 6 4 4 4 5 4 3 3 3 4 4 3 3 3 3 3 5 5 4 3 3 3 3 3 2 1 0 0 0 0 0 0 1 2 3 2 1 0
10 9 9 9 8 7 5 2 1 1 1 1 1 2 3 3 3 3 1 1 3 4 4 3 3 3 3 3 2 1 0 0 0 0 0 0 1 1 2 3 3 1 0
6 6 5 7 8 7 5 2 1 0 0 0 0 1 3 3 3 2 1 1 2 3 3 3 3 3 2 1 1 0 0 0 0 0 0 0 1 1 2 3 2 2 1
6 5 4 5 7 6 4 3 2 1 1 1 0 1 2 3 3 3 1 1 2 3 3 3 2 1 1 0 0 0 0 0 0 0 0 0 0 1 2 1 1 2 3
6 6 5 5 6 6 4 3 3 3 2 2 1 0 1 2 3 3 2 2 3 3 3 3 1 0 0 0 0 0 0 0 0 0 0 0 0 1 1 0 1 2 3
6 6 6 6 6 6 5 4 3 3 3 3 2 1 0 1 2 3 3 2 3 3 3 2 1 0 0 0 0 0 0 0 0 0 0 0 0 0 0 0 0 1 2
6 6 6 6 6 6 4 3 3 3 2 3 3 2 1 0 0 1 1 1 2 2 1 1 0 0 0 0 0 0 0 0 0 0 0 0 0 0 0 0 0 0 1
5 5 6 5 4 5 4 3 3 3 3 3 3 3 3 1 0 0 0 0 1 1 0 0 0 0 0 0 0 0 0 0 0 0 0 0 0 0 0 0 0 0 0
4 4 5 4 4 4 3 3 3 3 3 3 3 3 3 1 0 1 0 0 0 0 0 0 0 0 0 0 0 0 0 0 0 0 0 0 0 0 0 0 0 0 0
3 3 4 5 5 4 3 3 3 3 3 3 3 2 2 1 0 0 0 0 0 0 0 0 0 0 0 0 0 0 0 0 0 0 0 0 0 0 0 0 0 0 0
1 2 4 5 6 6 5 4 3 2 2 2 1 1 1 0 0 0 0 0 0 0 0 0 0 0 0 0 0 0 0 0 0 0 0 0 0 0 0 0 0 0 0
0 1 2 4 6 8 7 5 2 1 1 1 0 0 0 0 0 0 0 0 0 0 0 0 0 0 0 0 0 0 0 0 0 0 0 0 0 0 0 0 0 0 0
0 0 1 3 6 8 8 6 4 3 1 0 0 0 0 0 0 0 0 0 0 0 0 0 0 0 0 0 0 0 0 0 0 0 0 0 0 0 0 0 0 0 0
0 0 0 1 4 7 8 8 7 5 3 1 0 0 0 0 0 0 0 0 0 0 0 0 0 0 0 0 0 0 0 0 0 0 0 0 0 0 0 0 0 0 0
0 0 0 0 2 5 7 7 6 5 4 2 1 1 1 1 0 0 0 0 0 0 0 0 0 0 0 0 0 0 0 0 0 0 0 0 0 0 0 0 0 0 0
0 0 0 0 2 5 5 4 4 4 3 2 2 2 1 1 0 0 0 0 0 0 0 0 0 0 0 0 0 0 0 0 0 0 0 0 0 0 0 0 0 0 0
0 0 0 0 1 3 4 3 3 3 3 1 1 1 1 0 0 0 0 0 0 0 0 0 0 0 0 0 0 0 0 0 0 0 0 0 0 0 0 0 0 0 0
0 0 0 0 0 1 3 3 3 3 2 1 1 1 1 0 0 0 0 0 0 0 0 0 0 0 0 0 0 0 0 0 0 0 0 0 0 0 0 0 0 0 0
Wind_Speed
3 5 5 5 6 7 7 8 8 8 8 9 9 9 9 9 10 10 10 10 10 10 11 11 12 12 12 12 12 12 12 12 12 12 12 12 12 12 12 12 11 8 12
4 6 5 6 6 6 7 7 8 8 8 8 8 8 9 9 9 9 9 9 9 10 11 11 11 11 12 11 11 11 11 10 10 10 9 9 10 11 11 11 10 7 11
5 6 5 6 6 6 7 7 7 7 7 8 8 8 8 8 9 9 9 9 9 10 10 11 11 12 12 11 11 10 10 9 7 7 7 4 6 10 11 11 10 10 10
5 5 5 6 6 6 7 7 7 7 7 7 7 8 8 8 8 8 9 9 9 10 10 10 11 11 11 11 10 10 9 8 7 7 4 4 5 9 10 10 9 9 9
5 5 6 7 6 6 7 7 7 7 7 7 7 7 7 8 8 8 8 9 9 9 9 10 10 10 10 10 9 9 8 8 7 6 4 5 4 8 10 10 9 9 9
5 5 6 7 6 6 7 7 6 6 7 7 7 7 7 7 7 8 8 8 8 8 9 9 9 10 9 9 9 8 8 8 6 4 4 5 4 7 10 9 9 8 8
5 5 6 7 6 6 6 6 6 6 6 6 6 6 6 6 7 7 7 8 8 8 8 9 9 9 9 8 8 7 8 7 4 4 4 4 4 8 9 9 9 9 8
5 5 5 6 6 6 5 5 6 6 5 5 6 6 6 6 6 6 7 7 8 9 9 9 9 8 8 8 7 7 8 7 5 5 4 4 6 8 8 8 8 9 8
5 5 4 4 4 5 5 5 5 5 5 5 5 5 5 5 6 6 6 7 8 9 9 8 8 8 8 7 7 7 7 7 5 3 4 4 6 7 7 7 8 7 8
4 4 3 3 3 3 3 5 4 5 5 5 5 5 5 5 6 6 6 6 7 8 8 7 7 7 7 6 6 6 6 5 4 4 3 4 6 6 6 6 6 6 7
4 3 3 2 2 2 2 3 3 3 4 4 4 5 4 3 3 4 5 6 7 8 7 7 6 7 6 6 5 5 4 2 3 3 3 5 5 5 5 5 6 6 6
2 2 2 2 2 1 1 2 1 1 2 2 2 2 1 2 2 4 6 7 7 7 6 6 6 5 4 2 2 3 2 2 2 3 3 6 5 5 5 5 5 5 5
2 2 2 2 2 1 1 1 1 1 1 1 2 1 1 2 2 3 2 3 4 4 3 3 2 1 1 1 1 1 2 2 2 2 3 5 5 5 5 5 4 4 4
2 1 1 1 1 1 1 0 1 1 1 1 1 1 1 1 2 2 2 2 2 1 1 1 1 1 1 2 2 1 2 2 2 2 2 4 5 4 4 4 4 4 4
1 1 1 1 0 0 0 1 0 1 1 1 1 1 1 1 2 2 2 2 2 2 2 1 1 1 1 1 1 2 2 1 2 2 2 4 4 4 4 4 4 4 4
1 1 0 0 1 0 0 0 0 0 1 1 1 1 1 1 1 2 2 2 1 1 1 1 1 1 1 1 1 1 1 1 1 2 1 2 3 4 4 4 4 4 3
1 1 1 0 0 1 1 0 0 0 1 1 1 1 1 1 1 1 2 1 1 1 1 1 2 1 1 1 1 0 1 1 1 1 1 1 1 2 4 4 4 4 3
0 1 1 0 0 1 1 1 0 0 1 1 1 1 1 1 1 2 2 1 1 1 1 1 2 1 1 1 0 0 1 1 0 0 0 0 1 0 2 4 4 4 4
0 0 0 1 1 1 1 0 0 0 1 1 1 1 1 1 1 1 1 1 2 1 1 1 1 1 1 1 0 0 0 0 1 1 1 0 0 1 1 2 3 4 4
1 0 0 0 0 0 0 0 0 1 1 1 1 1 2 1 1 1 1 2 2 2 1 1 2 1 1 1 1 1 1 0 1 0 1 1 0 0 1 1 0 1 3
1 1 1 1 0 0 0 0 1 1 0 1 1 1 1 1 1 1 1 1 2 2 2 2 2 2 1 1 1 1 2 1 0 0 0 1 1 1 1 1 0 0 1
1 1 0 0 0 0 0 1 1 1 1 1 0 1 1 1 1 1 1 1 1 1 2 2 2 1 1 1 1 0 1 2 1 1 1 1 1 1 1 1 0 1 1
1 1 0 0 0 0 1 1 1 1 1 1 0 0 0 1 1 0 1 1 2 2 2 2 3 3 2 1 1 1 1 2 2 1 1 2 1 1 1 1 1 1 1
1 1 1 1 1 1 1 1 2 1 1 1 1 1 0 1 1 0 0 1 1 2 2 2 2 2 2 2 1 1 1 1 1 2 2 1 1 2 2 1 1 1 1
2 2 1 1 1 1 1 1 1 1 0 0 1 1 0 1 1 0 0 1 1 1 2 2 2 2 2 2 1 1 1 1 1 2 3 3 2 2 1 2 1 1 2
2 2 2 2 2 2 1 1 0 1 1 1 1 1 1 1 1 2 1 1 1 1 1 2 2 2 2 2 2 1 1 1 2 2 3 3 3 2 2 2 2 2 2
Wind_Direction
84 107 108 94 94 96 97 98 96 94 93 93 93 90 89 86 83 82 78 76 76 78 79 79 78 76 73 70 68 67 67 66 65 64 63 64 66 67 65 61 57 58 60
95 109 107 92 91 97 100 100 99 97 97 96 95 93 92 89 87 86 82 79 79 81 81 80 79 76 73 71 70 68 68 67 68 65 61 60 65 66 63 60 59 63 62
91 107 114 91 86 92 99 101 102 101 100 99 97 95 93 91 91 90 85 81 81 83 84 82 80 77 73 72 70 68 65 62 60 62 56 59 64 65 65 63 63 65 63
88 105 114 95 89 93 98 98 101 101 101 100 97 95 92 93 93 91 87 84 85 85 84 83 82 79 75 72 69 65 58 51 43 50 54 56 57 66 66 64 65 63 61
82 94 105 100 96 96 99 98 98 98 98 97 96 95 94 95 93 93 90 88 88 86 84 84 83 81 77 74 70 63 53 41 39 48 51 53 49 66 66 61 63 61 58
79 84 100 103 101 97 97 97 97 95 96 96 95 93 92 95 96 95 94 93 91 88 86 85 84 82 78 74 68 60 50 42 40 44 50 55 49 64 65 60 59 59 58
81 85 102 98 98 97 98 97 99 97 96 96 96 92 89 91 96 96 95 95 92 89 87 86 85 83 79 74 66 56 43 39 47 45 50 54 57 70 67 64 61 59 60
84 88 99 97 99 96 96 100 100 101 97 94 93 91 89 90 92 96 96 97 94 90 87 86 85 84 81 75 64 49 34 28 50 52 55 55 59 68 67 66 64 60 58
79 85 89 97 104 100 92 94 100 103 99 94 91 86 83 83 87 90 95 96 94 91 87 85 85 83 78 74 64 45 27 21 33 44 56 54 57 63 64 64 64 62 59
72 76 80 82 87 95 106 98 101 104 100 96 89 85 85 86 83 86 90 93 96 92 88 85 86 85 79 71 60 39 19 18 37 45 44 54 55 56 59 63 62 62 60
54 57 62 63 66 80 108 111 106 114 109 103 98 93 99 104 103 97 88 86 94 94 93 90 86 85 79 68 54 33 17 27 38 48 39 54 54 56 59 62 60 63 63
79 52 53 52 52 44 81 103 123 131 130 126 118 132 134 115 105 96 91 86 85 89 94 93 92 92 83 79 48 25 17 24 37 56 46 48 47 55 56 56 53 54 58
115 69 48 40 42 35 31 101 131 145 129 128 120 142 124 115 110 103 103 98 97 98 97 99 98 89 72 79 80 37 24 24 36 52 57 48 39 42 44 45 45 42 45
96 60 50 43 35 28 16 23 149 140 126 109 131 143 118 122 116 120 119 126 128 120 111 119 103 88 72 66 79 70 42 29 40 55 63 49 36 30 32 41 43 38 36
123 105 32 8 25 6 352 312 69 135 144 137 124 152 136 125 130 126 131 134 143 134 133 130 132 126 101 85 67 69 61 39 43 55 63 44 29 22 20 24 35 32 45
144 147 208 21 354 297 262 333 340 76 123 130 131 110 124 128 133 136 134 144 146 140 149 148 132 116 117 108 80 55 54 43 54 60 70 47 28 18 15 17 21 24 49
201 155 172 202 341 327 304 306 28 69 103 116 133 125 85 105 147 137 138 143 135 127 128 120 102 85 74 72 87 68 42 47 58 53 48 88 63 9 14 15 11 19 38
225 174 160 165 264 285 309 289 224 114 101 108 121 131 118 96 129 132 139 148 137 123 126 128 127 117 106 84 46 25 32 7 331 344 357 99 93 52 17 14 5 8 19
69 76 151 163 209 267 272 260 232 135 99 95 97 114 124 127 108 118 142 147 142 144 148 144 126 141 138 127 117 76 32 1 321 337 326 70 80 81 39 11 6 3 4
102 134 137 156 195 257 253 50 71 84 79 75 79 94 116 130 114 114 122 147 150 156 167 152 147 128 126 136 60 24 356 327 322 359 341 356 51 38 0 345 343 341 348
109 92 143 156 118 95 92 175 169 166 117 75 58 73 101 125 129 121 125 129 153 165 173 159 145 138 129 109 57 351 329 294 255 6 346 349 326 311 297 294 271 266 287
120 83 102 105 57 174 228 237 194 156 159 137 72 57 83 100 101 160 150 151 142 158 166 161 145 145 181 155 142 7 321 321 303 294 306 301 273 267 256 261 247 248 239
151 174 196 134 103 19 21 79 73 77 77 77 45 343 350 92 97 105 186 165 167 161 184 185 173 168 195 223 188 164 183 246 300 285 261 259 248 255 252 243 249 252 238
171 136 111 96 84 64 66 95 131 145 176 212 184 196 252 152 151 102 236 201 185 185 182 199 192 191 184 210 250 253 225 187 209 293 296 259 260 271 260 264 259 265 245
123 117 109 100 84 67 73 98 143 187 216 83 88 127 118 50 56 36 357 224 209 209 204 195 200 194 194 202 209 244 270 279 233 233 274 283 296 280 269 264 250 262 256
95 99 110 115 90 65 63 54 93 133 94 83 71 63 53 35 22 8 360 323 250 237 229 219 207 211 209 207 209 209 204 224 238 237 253 264 276 278 276 276 256 250 256